Terminal Aerodrome Forecast
Issued by NWS Quad Cities IA IL

Home | Current Version | Previous Version | Text Only | Print | Product List | Glossary On
Versions: 1 2 3 4 5 6 7 8 9 10 11 12 13 14 15 16 17 18
705
FTUS43 KDVN 232320
TAFDBQ
TAF
KDBQ 232320Z 2400/2424 05009G17KT P6SM BKN250
     FM240200 03006KT P6SM BKN250
     FM241800 36010KT P6SM BKN250=

USA.gov is the U.S. government's official web portal to all federal, state and local government web resources and services.